Location: Albuquerque Trailhead
(34.7934°N, 106.3736°W)
Time: 13:34:43
(UTC+00:00)

OBJECT-B - Pass Details

Date: 20 June 2021
Orbit: 414 x 423 km, 97.0° (Epoch: 05 June)

Event Time Altitude Azimuth Distance (km) Brightness Sun altitude
Exits shadow 03:36:41 - 199° (SSW) 2,264 4.2 -13.3°
Reaches altitude 10° 03:38:50 10° 216° (SW) 1,487 3.5 -13.7°
Maximum altitude 03:41:12 19° 264° (W) 1,056 3.3 -14.0°
Drops below altitude 10° 03:43:34 10° 313° (NW) 1,494 5.0 -14.4°
Sets 03:45:58 0° 331° (NNW) 2,360 6.0 -14.7°
